Location: Kerguer�zec
(48.4509°N, 4.7600°W)
Time: 18:55:50
(UTC+00:00)

Cosmos 220 Rocket - Pass Details

Date: 09 April 2020
Orbit: 574 x 618 km, 74.0° (Epoch: 24 May)

Event Time Altitude Azimuth Distance (km) Brightness Sun altitude
Rises 20:50:26 0° 336° (NNW) 2,842 8.5 -17.2°
Reaches altitude 10° 20:52:39 10° 336° (NNW) 1,943 7.5 -17.5°
Maximum altitude 20:57:00 82° 250° (WSW) 614 4.0 -18.1°
Enters shadow 20:58:56 33° 165° (SSE) 1,025 4.8 -18.3°
